Andrews, TX

10:43 AM CST on December 12, 2019 (GMT -0600)
Andrews

Weather History for KE11 - October, 2019

Change the Weather History Date:

Saturday, October 26, 2019

  Actual Average (WUND) Record (WUND)
Temperature  
Mean Temperature 54 °F -  
Max Temperature 75 °F - - (-1)
Min Temperature 32 °F - - (-1)
Degree Days  
Heating Degree Days 12    
Growing Degree Days 4 (Base 50)    
Moisture  
Dew Point 17 °F    
Average Humidity 30    
Maximum Humidity 60    
Minimum Humidity 10    
Precipitation  
Precipitation 0.00 in - - ()
Sea Level Pressure  
Sea Level Pressure 29.95 in    
Wind  
Wind Speed 6 mph ()    
Max Wind Speed 21 mph    
Max Gust Speed 28 mph    
Visibility 10.0 miles    
Events      
Averages and records for this station are not official NWS values.
T = Trace of Precipitation, MM = Missing Value Source: Averaged Metar Reports

Daily Weather History Graph

Daily Weather History Graph

Search for Another Location

Airport or City:

Astronomy

Oct. 26, 2019 Rise Set
Actual Time 8:02 AM CDT 7:05 PM CDT
Civil Twilight 7:37 AM CDT 7:30 PM CDT
Nautical Twilight 7:08 AM CDT 7:59 PM CDT
Astronomical Twilight 6:39 AM CDT 8:27 PM CDT
Moon 6:11 AM CDT (10/26) 6:33 PM CDT (10/26)
Length of Visible Light 11h 53m
Length of Day
11h 03m
Waning Crescent, 3% of the Moon is Illuminated
Oct 26
Waning Crescent
Oct 27
New
Nov 4
First Quarter
Nov 12
Full
Nov 19
Last Quarter

Hourly Weather History & Observations

Time (CDT) Temp. Windchill Dew Point Humidity Pressure Visibility Wind Dir Wind Speed Gust Speed Precip Events Conditions
12:15 AM 36.1 °F - 21.6 °F 56% 30.18 in 10.0 mi Calm Calm - N/A   Clear
12:35 AM 35.6 °F 32.8 °F 22.6 °F 59% 30.17 in 10.0 mi West 3.5 mph - N/A   Clear
12:55 AM 35.1 °F - 22.5 °F 60% 30.16 in 10.0 mi Calm Calm - N/A   Clear
1:10 AM 35.4 °F - 21.6 °F 57% 30.16 in 10.0 mi Calm Calm - N/A   Clear
1:35 AM 34.0 °F 29.8 °F 19.4 °F 55% 30.15 in 10.0 mi West 4.6 mph - N/A   Clear
1:55 AM 34.5 °F - 19.0 °F 53% 30.15 in 10.0 mi Calm Calm - N/A   Clear
2:15 AM 34.0 °F - 18.3 °F 53% 30.14 in 10.0 mi Calm Calm - N/A   Clear
2:35 AM 33.8 °F 30.8 °F 17.8 °F 52% 30.14 in 10.0 mi West 3.5 mph - N/A   Clear
2:55 AM 34.0 °F 29.8 °F 18.0 °F 52% 30.12 in 10.0 mi West 4.6 mph - N/A   Clear
3:15 AM 33.1 °F - 18.1 °F 54% 30.11 in 10.0 mi Calm Calm - N/A   Clear
3:35 AM 34.2 °F - 16.7 °F 49% 30.10 in 10.0 mi Calm Calm - N/A   Clear
3:55 AM 32.9 °F 29.8 °F 19.0 °F 57% 30.09 in 10.0 mi West 3.5 mph - N/A   Clear
4:15 AM 32.9 °F - 18.5 °F 55% 30.08 in 10.0 mi Calm Calm - N/A   Clear
4:35 AM 33.6 °F - 19.0 °F 55% 30.07 in 10.0 mi Calm Calm - N/A   Clear
4:55 AM 33.3 °F - 18.9 °F 56% 30.07 in 10.0 mi Calm Calm - N/A   Clear
5:15 AM 32.0 °F 27.5 °F 18.7 °F 58% 30.05 in 10.0 mi WSW 4.6 mph - N/A   Clear
5:35 AM 33.4 °F 29.1 °F 16.9 °F 51% 30.05 in 10.0 mi WSW 4.6 mph - N/A   Clear
5:55 AM 34.0 °F - 18.5 °F 53% 30.04 in 10.0 mi Calm Calm - N/A   Clear
6:15 AM 34.7 °F 30.6 °F 17.2 °F 49% 30.03 in 10.0 mi West 4.6 mph - N/A   Clear
6:35 AM 35.2 °F 32.4 °F 16.7 °F 47% 30.03 in 10.0 mi West 3.5 mph - N/A   Clear
6:55 AM 34.2 °F 31.2 °F 17.8 °F 51% 30.02 in 10.0 mi West 3.5 mph - N/A   Clear
7:15 AM 34.0 °F 31.0 °F 17.4 °F 51% 30.00 in 10.0 mi West 3.5 mph - N/A   Clear
7:35 AM 33.8 °F 30.8 °F 17.4 °F 51% 30.00 in 10.0 mi WSW 3.5 mph - N/A   Clear
7:55 AM 34.0 °F - 16.5 °F 49% 30.00 in 10.0 mi Calm Calm - N/A   Clear
8:15 AM 35.8 °F 33.0 °F 16.5 °F 46% 30.00 in 10.0 mi West 3.5 mph - N/A   Clear
8:35 AM 38.7 °F 33.6 °F 16.3 °F 40% 30.00 in 10.0 mi WSW 6.9 mph - N/A   Clear
8:55 AM 41.9 °F 36.3 °F 15.3 °F 34% 29.99 in 10.0 mi WSW 9.2 mph - N/A   Clear
9:15 AM 43.9 °F 39.3 °F 15.8 °F 32% 29.99 in 10.0 mi WSW 8.1 mph - N/A   Clear
9:35 AM 47.5 °F - 16.3 °F 29% 29.99 in 10.0 mi WSW 11.5 mph - N/A   Clear
9:55 AM 50.2 °F - 17.1 °F 27% 29.99 in 10.0 mi WSW 9.2 mph - N/A   Clear
10:15 AM 52.7 °F - 17.6 °F 25% 29.99 in 10.0 mi WSW 10.4 mph - N/A   Clear
10:35 AM 55.9 °F - 18.3 °F 23% 29.99 in 10.0 mi WSW 10.4 mph - N/A   Clear
10:55 AM 59.0 °F - 18.0 °F 20% 29.98 in 10.0 mi West 11.5 mph - N/A   Clear
11:15 AM 60.8 °F - 18.3 °F 19% 29.98 in 10.0 mi WSW 11.5 mph 18.4 mph N/A   Clear
11:35 AM 62.1 °F - 18.1 °F 18% 29.98 in 10.0 mi WSW 13.8 mph 17.3 mph N/A   Clear
11:55 AM 63.7 °F - 18.1 °F 17% 29.97 in 10.0 mi WSW 13.8 mph 19.6 mph N/A   Clear
12:15 PM 65.1 °F - 18.3 °F 17% 29.97 in 10.0 mi WSW 12.7 mph 20.7 mph N/A   Clear
12:35 PM 66.6 °F - 18.1 °F 16% 29.96 in 10.0 mi WSW 16.1 mph 20.7 mph N/A   Clear
12:55 PM 67.8 °F - 18.1 °F 15% 29.95 in 10.0 mi WSW 11.5 mph - N/A   Clear
1:15 PM 69.6 °F - 18.1 °F 14% 29.94 in 10.0 mi WSW 13.8 mph 19.6 mph N/A   Clear
1:35 PM 70.0 °F - 17.1 °F 13% 29.92 in 10.0 mi WSW 15.0 mph 18.4 mph N/A   Clear
1:55 PM 71.1 °F - 17.4 °F 13% 29.91 in 10.0 mi WSW 17.3 mph 21.9 mph N/A   Clear
2:15 PM 72.0 °F - 18.0 °F 13% 29.90 in 10.0 mi SW 16.1 mph 21.9 mph N/A   Clear
2:35 PM 72.0 °F - 17.8 °F 13% 29.88 in 10.0 mi WSW 20.7 mph 25.3 mph N/A   Clear
2:55 PM 72.3 °F - 17.8 °F 13% 29.87 in 10.0 mi SW 15.0 mph 21.9 mph N/A   Clear
3:10 PM 73.2 °F - 17.8 °F 12% 29.86 in 10.0 mi SW 15.0 mph 25.3 mph N/A   Clear
3:35 PM 73.6 °F - 16.9 °F 12% 29.85 in 10.0 mi WSW 16.1 mph 26.5 mph N/A   Clear
3:55 PM 75.0 °F - 17.2 °F 11% 29.84 in 10.0 mi SW 13.8 mph 23.0 mph N/A   Clear
4:15 PM 74.7 °F - 15.4 °F 11% 29.83 in 10.0 mi SW 15.0 mph 24.2 mph N/A   Clear
4:35 PM 74.7 °F - 15.6 °F 11% 29.83 in 10.0 mi SW 18.4 mph 27.6 mph N/A   Clear
4:55 PM 74.5 °F - 14.9 °F 10% 29.83 in 10.0 mi SW 18.4 mph 27.6 mph N/A   Clear
5:15 PM 74.3 °F - 13.8 °F 10% 29.83 in 10.0 mi SW 18.4 mph 27.6 mph N/A   Clear
5:35 PM 73.6 °F - 15.3 °F 11% 29.82 in 10.0 mi WSW 17.3 mph 25.3 mph N/A   Clear
5:55 PM 72.9 °F - 14.7 °F 11% 29.82 in 10.0 mi WSW 15.0 mph 27.6 mph N/A   Clear
6:15 PM 72.1 °F - 15.6 °F 12% 29.82 in 10.0 mi WSW 10.4 mph - N/A   Clear
6:35 PM 70.9 °F - 15.6 °F 12% 29.82 in 10.0 mi SW 10.4 mph - N/A   Clear
6:55 PM 69.1 °F - 15.4 °F 13% 29.82 in 10.0 mi SW 9.2 mph - N/A   Clear
7:15 PM 66.4 °F - 15.6 °F 14% 29.82 in 10.0 mi SW 8.1 mph - N/A   Clear
7:35 PM 63.7 °F - 15.4 °F 15% 29.83 in 10.0 mi SW 9.2 mph - N/A   Clear
7:55 PM 62.6 °F - 14.9 °F 16% 29.82 in 10.0 mi SW 9.2 mph - N/A   Clear
8:15 PM 61.0 °F - 14.4 °F 16% 29.82 in 10.0 mi SW 9.2 mph - N/A   Clear
8:35 PM 61.0 °F - 13.8 °F 16% 29.83 in 10.0 mi SW 8.1 mph - N/A   Clear
8:55 PM 59.4 °F - 13.1 °F 16% 29.83 in 10.0 mi SW 8.1 mph - N/A   Clear
9:15 PM 58.8 °F - 12.7 °F 16% 29.83 in 10.0 mi SSW 10.4 mph - N/A   Clear
9:35 PM 56.8 °F - 12.6 °F 17% 29.83 in 10.0 mi SSW 10.4 mph - N/A   Clear
9:55 PM 57.2 °F - 12.2 °F 17% 29.83 in 10.0 mi SW 8.1 mph - N/A   Clear
10:15 PM 58.1 °F - 11.5 °F 16% 29.83 in 10.0 mi SW 10.4 mph - N/A   Clear
10:35 PM 58.3 °F - 11.1 °F 16% 29.83 in 10.0 mi SW 10.4 mph - N/A   Clear
10:55 PM 56.8 °F - 11.3 °F 16% 29.83 in 10.0 mi SW 10.4 mph - N/A   Clear
11:15 PM 55.2 °F - 11.5 °F 18% 29.83 in 10.0 mi SW 8.1 mph - N/A   Clear
11:35 PM 53.8 °F - 12.7 °F 20% 29.83 in 10.0 mi WSW 9.2 mph - N/A   Clear
11:55 PM 54.0 °F - 13.8 °F 20% 29.83 in 10.0 mi WSW 10.4 mph - N/A   Clear